STARLINK-33838, 63500

Orbit data source: Space-Track

STARLINK-33838, 63500 is a payload satellite owned by SpaceX/Seattle (US) in LEO that was launched on Mon, 07 Apr 2025 UTC via an FALCON 9 launch vehicle from the Air Force Western Test Range (AFWTR). Payload-class satellites include a variety of spacecraft equipped with specific instruments for various scientific and technological missions. These include communications satellites like Starlink; space stations such as the ISS; scientific satellites like the Hubble; Earth observation satellites from companies like Planet Labs, Umbra, and HawkEye 360; GPS; miniature CubeSats for education and research; and military/defense satellites.

Loading next visibility...
Identifier
63500, 2025-071H
Orbit
LEO
Last TLE update
2 days ago
Origin
Manufacturer
SpaceX/Seattle
Mission
Operational spacecraft
Bus & Motor
STARLINK V2MO, Unknown motor
Mass
575 kg wet, ~530 kg dry
Launch date (UTC)
2025-04-07 (3 weeks ago)
Launch vehicle
FALCON 9
Launch site
Air Force Western Test Range (AFWTR)
Object type
Payload
Rocket body
Debris
Shape & HBR
Unknown
Radar Cross Section
Large (>1 m²)

Expand to show TLE details & history

TLE from 2 days ago
0 STARLINK-33838
1 63500U 25071H   25118.91668981 -.01456161  00000-0 -19513-1 0  9990
2 63500  53.1590 167.9066 0000887  80.0492 285.1736 15.60317105  4320
Epoch: 2025-04-28T22:00Z
Definitive object data (Epoch: 2025-04-28T22:00:01.999Z)
Latitude
4.11462°
Longitude
-16.15334°
Altitude
387.054 km
Speed
7.679 km/s
True Right ascension
11h 23m 54s
True Declination
4° 05' 19"
Sunlit
Object was in full shadow at TLE epoch
Visualization TLE readout
Latitude
-2.1151°
Longitude
-28.25398°
Altitude
401.211 km
Speed
7.671 km/s
Apparent Right ascension
08h 54m 13s
Apparent Declination
-23° 12' 35"
Sunlit
Object is in full shadow
Visualization observer readout
Local Sidereal Time
18:29:09
Azimuth
287.672° WNW
Elevation
-55.208°
Doppler factor
1
Orbital elements
Apogee altitude
387.6 km
Perigee altitude
386.4 km
Semi-major axis
6,765.137 km
Eccentricity
0.0000887
Inclination
53.159°
RAAN
167.9066°
Arg. of periapsis
80.0492°
True anomaly
285.16379°
Mean anomaly
285.1736°
Eccentric anomaly
285.16869°
Mean motion
3.90057 °/min
BSTAR
-0.019513
Orbital period
92.29 mins
Loading maneuver chart data...
Loading SW <> Apogee altitude chart data...
Loading historical data...
Loading historical data...
Loading historical data...
Loading historical data...
Loading historical data...
Loading historical data...
Loading historical data...

STARLINK-33838 Visibility forecast

Observer location: undefined°, undefined°

Span
Click to sort rows by Start time (UTC) header in descending order
Start Az.
Max El. time (UTC)
Max El. Az.
Max El.
End time (UTC)
End Az.
5 mins2025-04-30 11:23:03.772Z334.76° NNW2025-04-30 11:25:03.772Z13.627° NNE20.559°2025-04-30 11:28:03.772Z82.49° E
4 mins2025-04-30 13:00:03.772Z285.995° WNW2025-04-30 13:02:03.772Z217.483° SW32.376°2025-04-30 13:04:03.772Z161.558° S
5 mins2025-05-01 05:39:03.772Z247.798° W2025-05-01 05:41:03.772Z343.261° N40.527°2025-05-01 05:44:03.772Z43.862° NE
|